TimeCST,TemperatureF,Dew PointF,Humidity,Sea Level PressureIn,VisibilityMPH,Wind Direction,Wind SpeedMPH,Gust SpeedMPH,PrecipitationIn,Events,Conditions,WindDirDegrees,DateUTC
12:15 AM,44.6,32.0,61,30.15,10.0,SSE,15.0,-,N/A,,Partly Cloudy,160,2012-11-18 06:15:00
12:35 AM,44.6,32.0,61,30.15,10.0,South,16.1,-,N/A,,Clear,170,2012-11-18 06:35:00
12:55 AM,44.6,32.0,61,30.15,10.0,South,15.0,-,N/A,,Clear,170,2012-11-18 06:55:00
1:15 AM,42.8,32.0,66,30.14,10.0,SSE,15.0,-,N/A,,Clear,160,2012-11-18 07:15:00
1:55 AM,42.8,30.2,61,30.13,10.0,South,15.0,-,N/A,,Clear,170,2012-11-18 07:55:00
2:15 AM,42.8,30.2,61,30.13,10.0,South,16.1,-,N/A,,Clear,170,2012-11-18 08:15:00
2:35 AM,42.8,30.2,61,30.13,10.0,South,13.8,20.7,N/A,,Clear,170,2012-11-18 08:35:00
2:55 AM,44.6,30.2,57,30.13,10.0,South,16.1,-,N/A,,Mostly Cloudy,170,2012-11-18 08:55:00
3:15 AM,44.6,30.2,57,30.12,10.0,South,16.1,-,N/A,,Overcast,170,2012-11-18 09:15:00
3:35 AM,44.6,28.4,53,30.13,10.0,South,15.0,-,N/A,,Scattered Clouds,170,2012-11-18 09:35:00
3:55 AM,42.8,28.4,57,30.12,10.0,South,11.5,-,N/A,,Clear,170,2012-11-18 09:55:00
4:15 AM,41.0,28.4,61,30.12,10.0,SSE,13.8,-,N/A,,Clear,160,2012-11-18 10:15:00
4:35 AM,41.0,28.4,61,30.12,10.0,SSE,13.8,-,N/A,,Clear,160,2012-11-18 10:35:00
4:55 AM,41.0,28.4,61,30.12,10.0,South,12.7,-,N/A,,Clear,170,2012-11-18 10:55:00
5:15 AM,41.0,30.2,65,30.12,10.0,South,12.7,-,N/A,,Clear,170,2012-11-18 11:15:00
5:35 AM,41.0,30.2,65,30.12,10.0,South,13.8,-,N/A,,Clear,180,2012-11-18 11:35:00
5:55 AM,41.0,30.2,65,30.11,10.0,South,12.7,-,N/A,,Clear,180,2012-11-18 11:55:00
6:15 AM,41.0,30.2,65,30.11,10.0,South,13.8,-,N/A,,Clear,180,2012-11-18 12:15:00
6:35 AM,41.0,30.2,65,30.11,10.0,South,13.8,-,N/A,,Clear,180,2012-11-18 12:35:00
6:55 AM,41.0,30.2,65,30.10,10.0,South,17.3,-,N/A,,Clear,180,2012-11-18 12:55:00
7:15 AM,41.0,30.2,65,30.10,10.0,South,17.3,-,N/A,,Clear,180,2012-11-18 13:15:00
7:35 AM,41.0,30.2,65,30.10,10.0,South,16.1,-,N/A,,Clear,180,2012-11-18 13:35:00
7:55 AM,41.0,30.2,65,30.10,10.0,South,16.1,-,N/A,,Clear,180,2012-11-18 13:55:00
8:15 AM,41.0,30.2,65,30.10,10.0,South,16.1,-,N/A,,Clear,180,2012-11-18 14:15:00
8:35 AM,42.8,30.2,61,30.10,10.0,South,17.3,-,N/A,,Clear,180,2012-11-18 14:35:00
8:55 AM,44.6,30.2,57,30.10,10.0,South,19.6,-,N/A,,Clear,180,2012-11-18 14:55:00
9:15 AM,46.4,30.2,53,30.10,10.0,South,17.3,-,N/A,,Clear,190,2012-11-18 15:15:00
9:35 AM,48.2,30.2,50,30.10,10.0,South,20.7,-,N/A,,Clear,190,2012-11-18 15:35:00
9:55 AM,48.2,30.2,50,30.10,10.0,SSW,19.6,27.6,N/A,,Clear,200,2012-11-18 15:55:00
10:15 AM,50.0,30.2,47,30.11,10.0,SSW,21.9,-,N/A,,Clear,200,2012-11-18 16:15:00
10:35 AM,50.0,30.2,47,30.10,10.0,South,21.9,-,N/A,,Clear,190,2012-11-18 16:35:00
10:55 AM,51.8,30.2,44,30.10,10.0,SSW,19.6,25.3,N/A,,Clear,200,2012-11-18 16:55:00
11:15 AM,53.6,32.0,44,30.09,10.0,SSW,19.6,25.3,N/A,,Clear,200,2012-11-18 17:15:00
11:35 AM,53.6,32.0,44,30.08,10.0,South,19.6,25.3,N/A,,Clear,190,2012-11-18 17:35:00
11:55 AM,55.4,32.0,41,30.08,10.0,SSW,18.4,-,N/A,,Clear,200,2012-11-18 17:55:00
12:15 PM,53.6,30.2,41,30.07,10.0,South,20.7,-,N/A,,Clear,190,2012-11-18 18:15:00
12:35 PM,55.4,32.0,41,30.07,10.0,SSW,19.6,-,N/A,,Clear,200,2012-11-18 18:35:00
12:55 PM,55.4,32.0,41,30.07,10.0,South,17.3,-,N/A,,Clear,190,2012-11-18 18:55:00
1:15 PM,57.2,32.0,38,30.06,10.0,South,19.6,-,N/A,,Clear,190,2012-11-18 19:15:00
1:35 PM,57.2,32.0,38,30.05,10.0,South,16.1,-,N/A,,Clear,180,2012-11-18 19:35:00
1:55 PM,59.0,32.0,36,30.06,10.0,South,15.0,20.7,N/A,,Clear,180,2012-11-18 19:55:00
2:15 PM,59.0,32.0,36,30.05,10.0,South,19.6,-,N/A,,Clear,190,2012-11-18 20:15:00
2:35 PM,59.0,32.0,36,30.05,10.0,South,18.4,24.2,N/A,,Clear,180,2012-11-18 20:35:00
2:55 PM,59.0,32.0,36,30.05,10.0,South,20.7,-,N/A,,Clear,170,2012-11-18 20:55:00
3:15 PM,59.0,32.0,36,30.05,10.0,South,15.0,20.7,N/A,,Clear,170,2012-11-18 21:15:00
3:35 PM,59.0,32.0,36,30.05,10.0,South,16.1,-,N/A,,Clear,170,2012-11-18 21:35:00
3:55 PM,57.2,32.0,38,30.06,10.0,SSE,16.1,-,N/A,,Clear,160,2012-11-18 21:55:00
4:15 PM,55.4,33.8,44,30.06,10.0,South,15.0,-,N/A,,Clear,170,2012-11-18 22:15:00
4:35 PM,55.4,33.8,44,30.06,10.0,South,15.0,23.0,N/A,,Clear,180,2012-11-18 22:35:00
4:55 PM,53.6,32.0,44,30.05,10.0,South,16.1,-,N/A,,Clear,170,2012-11-18 22:55:00
5:15 PM,51.8,33.8,50,30.05,10.0,South,13.8,-,N/A,,Clear,170,2012-11-18 23:15:00
5:35 PM,51.8,33.8,50,30.05,10.0,SSE,13.8,21.9,N/A,,Clear,160,2012-11-18 23:35:00
5:55 PM,50.0,33.8,54,30.05,10.0,SSE,15.0,20.7,N/A,,Clear,160,2012-11-18 23:55:00
6:15 PM,50.0,33.8,54,30.06,10.0,SSE,12.7,-,N/A,,Clear,150,2012-11-19 00:15:00
6:35 PM,50.0,33.8,54,30.06,10.0,SSE,16.1,-,N/A,,Clear,150,2012-11-19 00:35:00
6:55 PM,48.2,33.8,58,30.06,10.0,SSE,13.8,-,N/A,,Partly Cloudy,150,2012-11-19 00:55:00
7:15 PM,48.2,33.8,58,30.07,10.0,SSE,13.8,-,N/A,,Mostly Cloudy,150,2012-11-19 01:15:00
7:35 PM,48.2,33.8,58,30.06,10.0,SSE,12.7,-,N/A,,Scattered Clouds,160,2012-11-19 01:35:00
7:55 PM,48.2,33.8,58,30.06,10.0,SSE,13.8,-,N/A,,Clear,160,2012-11-19 01:55:00
8:15 PM,48.2,33.8,58,30.06,10.0,SSE,16.1,-,N/A,,Partly Cloudy,160,2012-11-19 02:15:00
8:35 PM,46.4,33.8,62,30.07,-9999.0,South,10.4,-,N/A,,Scattered Clouds,170,2012-11-19 02:35:00
8:55 PM,46.4,35.6,66,30.07,10.0,South,11.5,-,N/A,,Clear,170,2012-11-19 02:55:00
9:15 PM,46.4,35.6,66,30.06,10.0,SSE,12.7,-,N/A,,Clear,160,2012-11-19 03:15:00
9:35 PM,46.4,35.6,66,30.06,10.0,SSE,12.7,-,N/A,,Clear,160,2012-11-19 03:35:00
9:55 PM,46.4,35.6,66,30.07,10.0,SSE,12.7,18.4,N/A,,Clear,150,2012-11-19 03:55:00
10:15 PM,46.4,35.6,66,30.06,10.0,SE,8.1,-,N/A,,Clear,140,2012-11-19 04:15:00
10:35 PM,46.4,35.6,66,30.05,10.0,SSE,10.4,-,N/A,,Mostly Cloudy,150,2012-11-19 04:35:00
11:15 PM,48.2,35.6,62,30.05,10.0,South,12.7,-,N/A,,Overcast,170,2012-11-19 05:15:00
11:55 PM,50.0,37.4,62,30.05,10.0,South,13.8,-,N/A,,Overcast,180,2012-11-19 05:55:00